Dades meteomassalio
Diari Summary for Agost 4, 2017 Units:  Metric    English   Both
« Previous Day
Next Day »
Diari Semanal Mensual Anual Personalitzat
  Maxima: Minima: Mijana:
Temperatura: -17.8 °C -5.9 °C -1.1 °C
Rosada: -17.8 °C -10.6 °C -9.3 °C
Humitat: Humidity % 23 % 43 %
Velocitat del vent: 0 km/h 0 km/h 6.4 km/h
Racha vent: 0 km/h - -
Vent:- - SW
Pressio: 0 hPa 34246 hPa -
Pluja: 0 mm    
Historical Graphs
 
 
Tabular Data for Agost 4, 2017
Time Temperature Dew Point Pressure Wind Wind Speed Wind Gust Humidity Rainfall Rate (Hourly) solar Conditions
-17.8 °C -17.8 °C 0 hPa Calm     Humidity % 0 mm SolarRadiationWatts/m^2 W/m2 Conditions
00:03 -1.9 °C -9.2 °C 34303.6 hPa Calm     45 % 0 mm 0.0 W/m2 CLR
00:08 -2.1 °C -9.1 °C 34303.6 hPa Calm   5.5 km/h 46 % 0 mm 0.0 W/m2 CLR
00:13 -1.9 °C -9.2 °C 34303.6 hPa Calm     45 % 0 mm 0.0 W/m2 CLR
00:18 -1.9 °C -9.2 °C 34303.6 hPa SSW 6 km/h 6 km/h 45 % 0 mm 0.0 W/m2 CLR
00:23 -1.9 °C -9.2 °C 34303.6 hPa Calm     45 % 0 mm 0.0 W/m2 CLR
00:28 -2.2 °C -9.2 °C 34303.6 hPa Calm     46 % 0 mm 0.0 W/m2 CLR
00:33 -2.4 °C -9.3 °C 34293.4 hPa Calm     47 % 0 mm 0.0 W/m2 CLR
00:38 -2.7 °C -9.3 °C 34293.4 hPa Calm     48 % 0 mm 0.0 W/m2 CLR
00:43 -2.9 °C -9.3 °C 34293.4 hPa Calm     49 % 0 mm 0.0 W/m2 CLR
00:48 -3.1 °C -9.3 °C 34303.6 hPa Calm     50 % 0 mm 0.0 W/m2 CLR
00:53 -3.2 °C -9.2 °C 34293.4 hPa Calm     51 % 0 mm 0.0 W/m2 CLR
00:58 -3.2 °C -9.3 °C 34293.4 hPa Calm     51 % 0 mm 0.0 W/m2 CLR
01:03 -3.3 °C -9.4 °C 34293.4 hPa Calm     51 % 0 mm 0.0 W/m2 CLR
01:08 -3.3 °C -9.4 °C 34293.4 hPa Calm     51 % 0 mm 0.0 W/m2 CLR
01:13 -3.4 °C -9.3 °C 34303.6 hPa Calm     52 % 0 mm 0.0 W/m2 CLR
01:18 -3.4 °C -9.3 °C 34303.6 hPa Calm     52 % 0 mm 0.0 W/m2 CLR
01:23 -3.6 °C -9.4 °C 34293.4 hPa Calm     52 % 0 mm 0.0 W/m2 CLR
01:28 -3.7 °C -9.3 °C 34293.4 hPa Calm     53 % 0 mm 0.0 W/m2 CLR
01:33 -3.6 °C -9.3 °C 34303.6 hPa Calm     53 % 0 mm 0.0 W/m2 CLR
01:38 -3.6 °C -9.3 °C 34293.4 hPa Calm     53 % 0 mm 0.0 W/m2 CLR
01:43 -3.7 °C -9.4 °C 34293.4 hPa Calm     53 % 0 mm 0.0 W/m2 CLR
01:48 -3.7 °C -9.3 °C 34293.4 hPa Calm     53 % 0 mm 0.0 W/m2 CLR
01:53 -3.7 °C -9.3 °C 34303.6 hPa Calm     53 % 0 mm 0.0 W/m2 CLR
01:58 -3.8 °C -9.5 °C 34293.4 hPa Calm     53 % 0 mm 0.0 W/m2 CLR
02:03 -3.9 °C -9.4 °C 34293.4 hPa Calm     54 % 0 mm 0.0 W/m2 CLR
02:08 -3.9 °C -9.3 °C 34293.4 hPa Calm     55 % 0 mm 0.0 W/m2 CLR
02:13 -3.9 °C -9.4 °C 34293.4 hPa Calm     54 % 0 mm 0.0 W/m2 CLR
02:18 -3.9 °C -9.4 °C 34293.4 hPa Calm     54 % 0 mm 0.0 W/m2 CLR
02:23 -3.9 °C -9.5 °C 34293.4 hPa Calm     54 % 0 mm 0.0 W/m2 CLR
02:24 -3.9 °C -9.5 °C 34293.4 hPa Calm     54 % 0 mm 0.0 W/m2 CLR
02:28 -4.1 °C -9.6 °C 34293.4 hPa Calm     54 % 0 mm 0.0 W/m2 CLR
02:33 -4.1 °C -9.5 °C 34293.4 hPa Calm     55 % 0 mm 0.0 W/m2 CLR
02:38 -4.3 °C -9.6 °C 34293.4 hPa Calm     55 % 0 mm 0.0 W/m2 CLR
02:43 -4.4 °C -9.6 °C 34293.4 hPa Calm     56 % 0 mm 0.0 W/m2 CLR
02:48 -4.6 °C -9.6 °C 34293.4 hPa Calm     57 % 0 mm 0.0 W/m2 CLR
02:54 -4.7 °C -9.7 °C 34303.6 hPa Calm     57 % 0 mm 0.0 W/m2 CLR
02:59 -4.7 °C -9.6 °C 34303.6 hPa Calm     58 % 0 mm 0.0 W/m2 CLR
03:04 -4.8 °C -9.6 °C 34303.6 hPa Calm     58 % 0 mm 0.0 W/m2 CLR
03:09 -4.9 °C -9.7 °C 34303.6 hPa Calm     58 % 0 mm 0.0 W/m2 CLR
03:14 -4.9 °C -9.8 °C 34303.6 hPa Calm     58 % 0 mm 0.0 W/m2 CLR
03:19 -4.9 °C -9.6 °C 34303.6 hPa Calm     59 % 0 mm 0.0 W/m2 CLR
03:24 -4.9 °C -9.6 °C 34303.6 hPa Calm     59 % 0 mm 0.0 W/m2 CLR
03:29 -4.9 °C -9.8 °C 34303.6 hPa Calm     58 % 0 mm 0.0 W/m2 CLR
03:34 -5.1 °C -9.8 °C 34303.6 hPa Calm     59 % 0 mm 0.0 W/m2 CLR
03:39 -5.2 °C -9.9 °C 34303.6 hPa Calm     59 % 0 mm 0.0 W/m2 CLR
03:44 -5.3 °C -9.8 °C 34303.6 hPa Calm     60 % 0 mm 0.0 W/m2 CLR
03:49 -5.3 °C -9.9 °C 34303.6 hPa Calm     60 % 0 mm 0.0 W/m2 CLR
03:54 -5.3 °C -10 °C 34303.6 hPa Calm     59 % 0 mm 0.0 W/m2 CLR
03:59 -5.3 °C -9.9 °C 34303.6 hPa Calm     59 % 0 mm 0.0 W/m2 CLR
04:04 -5.2 °C -9.9 °C 34303.6 hPa Calm     59 % 0 mm 0.0 W/m2 CLR
04:09 -5.2 °C -9.9 °C 34303.6 hPa Calm     59 % 0 mm 0.0 W/m2 CLR
04:14 -5.2 °C -9.9 °C 34303.6 hPa Calm     59 % 0 mm 0.0 W/m2 CLR
04:19 -5.2 °C -9.9 °C 34303.6 hPa Calm     58 % 0 mm 0.0 W/m2 CLR
04:24 -5.2 °C -9.8 °C 34303.6 hPa Calm     59 % 0 mm 0.0 W/m2 CLR
04:29 -5.2 °C -10 °C 34303.6 hPa WSW 3.1 km/h 3.1 km/h 58 % 0 mm 0.0 W/m2 CLR
04:34 -5.2 °C -9.9 °C 34303.6 hPa SW 3.1 km/h   58 % 0 mm 0.0 W/m2 CLR
04:39 -5.1 °C -10.1 °C 34303.6 hPa Calm     57 % 0 mm 0.0 W/m2 CLR
04:44 -5.1 °C -9.9 °C 34303.6 hPa Calm     58 % 0 mm 0.0 W/m2 CLR
04:49 -5.1 °C -9.9 °C 34313.7 hPa Calm     58 % 0 mm 0.0 W/m2 CLR
04:54 -5.1 °C -10.1 °C 34313.7 hPa Calm     57 % 0 mm 0.0 W/m2 CLR
04:59 -5.1 °C -9.9 °C 34313.7 hPa Calm     58 % 0 mm 0.0 W/m2 CLR
05:04 -5.1 °C -9.9 °C 34313.7 hPa Calm     58 % 0 mm 0.0 W/m2 CLR
05:09 -5.1 °C -9.8 °C 34313.7 hPa Calm     59 % 0 mm 0.0 W/m2 CLR
05:15 -5.1 °C -9.8 °C 34313.7 hPa Calm     59 % 0 mm 0.0 W/m2 CLR
05:17 -5.1 °C -9.8 °C 34313.7 hPa Calm     59 % 0 mm 0.0 W/m2 CLR
05:20 -5.1 °C -9.7 °C 34313.7 hPa Calm     60 % 0 mm 0.0 W/m2 CLR
05:21 -5.1 °C -9.7 °C 34313.7 hPa Calm     60 % 0 mm 0.0 W/m2 CLR
05:24 -5.2 °C -9.9 °C 34313.7 hPa Calm     59 % 0 mm 0.0 W/m2 CLR
05:26 -5.2 °C -9.9 °C 34313.7 hPa Calm   0.3 km/h 59 % 0 mm 0.0 W/m2 CLR
05:31 -5.2 °C -9.9 °C 34313.7 hPa Calm     59 % 0 mm 0.0 W/m2 CLR
05:41 -5.2 °C -9.8 °C 34313.7 hPa Calm     60 % 0 mm 0.0 W/m2 CLR
05:46 -5.3 °C -9.8 °C 34313.7 hPa Calm     60 % 0 mm 0.0 W/m2 CLR
05:51 -5.3 °C -9.7 °C 34327.3 hPa Calm     61 % 0 mm 0.0 W/m2 CLR
05:56 -5.4 °C -9.8 °C 34327.3 hPa Calm     61 % 0 mm 0.0 W/m2 CLR
06:01 -5.4 °C -9.8 °C 34327.3 hPa Calm     61 % 0 mm 0.0 W/m2 CLR
06:06 -5.4 °C -9.8 °C 34327.3 hPa Calm     61 % 0 mm 0.0 W/m2 CLR
06:11 -5.4 °C -9.8 °C 34327.3 hPa Calm     61 % 0 mm 0.0 W/m2 CLR
06:16 -5.5 °C -9.8 °C 34327.3 hPa Calm     62 % 0 mm 0.0 W/m2 CLR
06:21 -5.6 °C -9.8 °C 34327.3 hPa Calm     62 % 0 mm 0.0 W/m2 CLR
06:26 -5.6 °C -9.8 °C 34327.3 hPa Calm     62 % 0 mm 0.0 W/m2 CLR
06:31 -5.7 °C -9.9 °C 34337.4 hPa Calm     62 % 0 mm 0.0 W/m2 CLR
06:36 -5.7 °C -9.8 °C 34337.4 hPa Calm     63 % 0 mm 0.0 W/m2 CLR
06:41 -5.8 °C -9.8 °C 34337.4 hPa Calm     64 % 0 mm 0.0 W/m2 CLR
06:46 -5.9 °C -9.8 °C 34337.4 hPa Calm     64 % 0 mm 0.0 W/m2 CLR
06:51 -5.9 °C -9.7 °C 34337.4 hPa Calm     65 % 0 mm 0.0 W/m2 OVC
06:56 -5.9 °C -9.7 °C 34337.4 hPa Calm     65 % 0 mm 0.0 W/m2 OVC
07:01 -5.9 °C -9.7 °C 34337.4 hPa Calm     65 % 0 mm 5.0 W/m2 OVC
07:06 -5.9 °C -9.6 °C 34337.4 hPa Calm     66 % 0 mm 9.0 W/m2 BKN
07:11 -5.8 °C -9.5 °C 34347.6 hPa Calm     66 % 0 mm 11.0 W/m2 BKN
07:16 -5.8 °C -9.5 °C 34347.6 hPa Calm     66 % 0 mm 14.0 W/m2 BKN
07:21 -5.8 °C -9.4 °C 34347.6 hPa Calm     66 % 0 mm 18.0 W/m2 BKN
07:26 -5.8 °C -9.4 °C 34347.6 hPa Calm     66 % 0 mm 21.0 W/m2 BKN
07:31 -5.8 °C -9.5 °C 34347.6 hPa Calm     66 % 0 mm 26.0 W/m2 BKN
07:36 -5.8 °C -9.4 °C 34361.1 hPa Calm     67 % 0 mm 33.0 W/m2 BKN
07:41 -5.7 °C -9.4 °C 34361.1 hPa Calm     66 % 0 mm 39.0 W/m2 BKN
07:46 -5.6 °C -9.4 °C 34361.1 hPa Calm     65 % 0 mm 47.0 W/m2 SCT
07:51 -5.5 °C -9.3 °C 34361.1 hPa Calm     65 % 0 mm 63.0 W/m2 SCT
07:56 -5.4 °C -9.2 °C 34361.1 hPa Calm     65 % 0 mm 76.0 W/m2 FEW
08:01 -5.2 °C -9.1 °C 34361.1 hPa Calm     65 % 0 mm 88.0 W/m2 FEW
08:06 -5.1 °C -9 °C 34361.1 hPa Calm     65 % 0 mm 102.0 W/m2 CLR
08:11 -4.9 °C -8.9 °C 34361.1 hPa Calm     64 % 0 mm 118.0 W/m2 CLR
08:16 -4.8 °C -8.9 °C 34361.1 hPa Calm     63 % 0 mm 132.0 W/m2 CLR
08:21 -4.6 °C -8.8 °C 34361.1 hPa Calm     62 % 0 mm 148.0 W/m2 CLR
08:26 -4.3 °C -8.8 °C 34361.1 hPa Calm     61 % 0 mm 165.0 W/m2 CLR
08:31 -4.1 °C -8.7 °C 34361.1 hPa Calm     60 % 0 mm 181.0 W/m2 CLR
08:37 -3.8 °C -8.6 °C 34371.3 hPa Calm     59 % 0 mm 199.0 W/m2 CLR
08:38 -3.8 °C -8.7 °C 34361.1 hPa Calm     58 % 0 mm 202.0 W/m2 CLR
08:43 -3.6 °C -8.4 °C 34371.3 hPa Calm     59 % 0 mm 214.0 W/m2 CLR
08:48 -3.4 °C -8.4 °C 34361.1 hPa Calm     58 % 0 mm 230.0 W/m2 CLR
08:53 -3.3 °C -8.4 °C 34361.1 hPa WSW 15 km/h 15 km/h 57 % 0 mm 248.0 W/m2 CLR
08:58 -3.1 °C -8.2 °C 34371.3 hPa Calm     57 % 0 mm 260.0 W/m2 CLR
09:03 -2.9 °C -8.2 °C 34371.3 hPa Calm     56 % 0 mm 276.0 W/m2 CLR
09:08 -2.7 °C -8.2 °C 34371.3 hPa WNW 17.9 km/h 17.9 km/h 55 % 0 mm 292.0 W/m2 CLR
09:13 -2.7 °C -8.3 °C 34371.3 hPa West 9 km/h   54 % 0 mm 306.0 W/m2 CLR
09:18 -2.6 °C -8.2 °C 34371.3 hPa WSW 15 km/h 15 km/h 54 % 0 mm 327.0 W/m2 CLR
09:23 -2.5 °C -8.1 °C 34371.3 hPa SW 15 km/h 15 km/h 54 % 0 mm 339.0 W/m2 CLR
09:28 -2.4 °C -8.2 °C 34371.3 hPa West 15 km/h 15 km/h 53 % 0 mm 355.0 W/m2 CLR
09:33 -2.3 °C -8.3 °C 34371.3 hPa WNW 11.9 km/h 11.9 km/h 52 % 0 mm 369.0 W/m2 CLR
09:38 -2.3 °C -8.4 °C 34371.3 hPa West 17.9 km/h 17.9 km/h 51 % 0 mm 387.0 W/m2 CLR
09:43 -2.2 °C -8.4 °C 34371.3 hPa West 20.9 km/h 20.9 km/h 51 % 0 mm 107.0 W/m2 CLR
09:48 -2.1 °C -8.3 °C 34371.3 hPa WNW 17.9 km/h 17.9 km/h 51 % 0 mm 192.0 W/m2 CLR
09:53 -2 °C -8.3 °C 34371.3 hPa WNW 12.9 km/h 15.6 km/h 50 % 0 mm 432.0 W/m2 CLR
09:58 -1.9 °C -8.3 °C 34371.3 hPa NW 20.9 km/h 20.9 km/h 50 % 0 mm 446.0 W/m2 CLR
10:03 -1.9 °C -8.5 °C 34371.3 hPa West 20.9 km/h 20.9 km/h 49 % 0 mm 464.0 W/m2 CLR
10:08 -1.9 °C -8.3 °C 34371.3 hPa West 9 km/h 9 km/h 50 % 0 mm 476.0 W/m2 CLR
10:13 -1.8 °C -8.3 °C 34371.3 hPa NW 11.9 km/h 11.9 km/h 49 % 0 mm 494.0 W/m2 CLR
10:18 -1.7 °C -8.2 °C 34371.3 hPa WNW 3.1 km/h   49 % 0 mm 508.0 W/m2 CLR
10:23 -1.6 °C -8.2 °C 34371.3 hPa WNW 20.9 km/h 20.9 km/h 49 % 0 mm 522.0 W/m2 CLR
10:28 -1.5 °C -8.1 °C 34371.3 hPa NW 10.3 km/h 10.3 km/h 49 % 0 mm 534.0 W/m2 CLR
10:33 -1.4 °C -7.9 °C 34371.3 hPa Calm     49 % 0 mm 552.0 W/m2 CLR
10:38 -1.3 °C -8.1 °C 34371.3 hPa SSW 17.9 km/h 17.9 km/h 48 % 0 mm 563.0 W/m2 CLR
10:39 -1.3 °C -8 °C 34371.3 hPa WNW 29.8 km/h 29.8 km/h 48 % 0 mm 566.0 W/m2 CLR
10:44 -1.2 °C -8.2 °C 34371.3 hPa WSW 20.9 km/h 20.9 km/h 47 % 0 mm 578.0 W/m2 CLR
10:49 -1.2 °C -8.2 °C 34371.3 hPa Calm     47 % 0 mm 591.0 W/m2 CLR
10:54 -1.1 °C -8.1 °C 34384.8 hPa WSW 17.9 km/h 17.9 km/h 47 % 0 mm 605.0 W/m2 CLR
10:59 -1.1 °C -8 °C 34371.3 hPa NNW 23.8 km/h 23.8 km/h 47 % 0 mm 613.0 W/m2 CLR
11:04 -1 °C -8.2 °C 34371.3 hPa NNW 23.8 km/h 23.8 km/h 46 % 0 mm 631.0 W/m2 CLR
11:09 -0.9 °C -8.1 °C 34371.3 hPa Calm     46 % 0 mm 643.0 W/m2 CLR
11:14 -0.8 °C -8.2 °C 34371.3 hPa WSW 17.9 km/h 17.9 km/h 45 % 0 mm 654.0 W/m2 CLR
11:19 -0.9 °C -8.1 °C 34371.3 hPa Calm     46 % 0 mm 664.0 W/m2 CLR
11:24 -0.7 °C -7.9 °C 34371.3 hPa North 29.8 km/h 29.8 km/h 46 % 0 mm 679.0 W/m2 CLR
11:29 -0.6 °C -8 °C 34371.3 hPa West 5.1 km/h 5.1 km/h 45 % 0 mm 689.0 W/m2 CLR
11:34 -0.4 °C -8.1 °C 34371.3 hPa NW 20.9 km/h 20.9 km/h 44 % 0 mm 701.0 W/m2 CLR
11:39 -0.4 °C -8.2 °C 34371.3 hPa NW 20.9 km/h 20.9 km/h 43 % 0 mm 712.0 W/m2 CLR
11:44 -0.4 °C -8 °C 34371.3 hPa NNE 15 km/h 15 km/h 44 % 0 mm 722.0 W/m2 CLR
11:49 -0.2 °C -8.1 °C 34371.3 hPa West 15.6 km/h 15.6 km/h 43 % 0 mm 735.0 W/m2 CLR
11:54 -0.2 °C -8.3 °C 34371.3 hPa WNW 17.9 km/h 17.9 km/h 42 % 0 mm 744.0 W/m2 CLR
11:59 -0.2 °C -8.2 °C 34371.3 hPa NNW 17.9 km/h 17.9 km/h 42 % 0 mm 752.0 W/m2 CLR
12:04 -0.2 °C -8.2 °C 34371.3 hPa Calm     42 % 0 mm 761.0 W/m2 CLR
12:09 -0.1 °C -8.2 °C 34371.3 hPa WSW 17.9 km/h 17.9 km/h 42 % 0 mm 772.0 W/m2 CLR
12:14 -0.1 °C -8.3 °C 34371.3 hPa NW 9 km/h 9 km/h 41 % 0 mm 779.0 W/m2 CLR
12:19 0.2 °C -8.2 °C 34371.3 hPa West 9 km/h 9 km/h 41 % 0 mm 788.0 W/m2 CLR
12:24 0.2 °C -8.1 °C 34361.1 hPa Calm     41 % 0 mm 793.0 W/m2 CLR
12:29 0.4 °C -8.2 °C 34361.1 hPa Calm     40 % 0 mm 803.0 W/m2 CLR
12:34 0.6 °C -8.2 °C 34361.1 hPa West 9 km/h 9 km/h 39 % 0 mm 810.0 W/m2 CLR
12:39 0.6 °C -8.2 °C 34361.1 hPa Calm     39 % 0 mm 817.0 W/m2 CLR
12:44 0.7 °C -8.1 °C 34361.1 hPa NNW 18.2 km/h 18.2 km/h 39 % 0 mm 823.0 W/m2 CLR
12:49 0.9 °C -8.2 °C 34347.6 hPa North 9 km/h   38 % 0 mm 830.0 W/m2 CLR
12:54 0.8 °C -8.2 °C 34347.6 hPa Calm     38 % 0 mm 838.0 W/m2 CLR
12:59 1.1 °C -8.2 °C 34347.6 hPa WNW 15 km/h 15 km/h 37 % 0 mm 844.0 W/m2 CLR
13:04 0.9 °C -8.3 °C 34347.6 hPa Calm     37 % 0 mm 847.0 W/m2 CLR
13:09 0.9 °C -8.3 °C 34337.4 hPa Calm     37 % 0 mm 851.0 W/m2 CLR
13:14 1.1 °C -8.2 °C 34337.4 hPa Calm     37 % 0 mm 858.0 W/m2 CLR
13:19 1.3 °C -8 °C 34337.4 hPa Calm     37 % 0 mm 858.0 W/m2 CLR
13:24 1.6 °C -8.2 °C 34337.4 hPa West 17.9 km/h 17.9 km/h 35 % 0 mm 861.0 W/m2 CLR
13:29 1.6 °C -8.3 °C 34337.4 hPa Calm     35 % 0 mm 868.0 W/m2 CLR
13:34 1.8 °C -8.4 °C 34337.4 hPa NNE 3.1 km/h   34 % 0 mm 868.0 W/m2 CLR
13:39 1.8 °C -8.3 °C 34337.4 hPa NW 15.6 km/h 15.6 km/h 34 % 0 mm 872.0 W/m2 CLR
13:44 1.7 °C -8.4 °C 34327.3 hPa North 3.1 km/h   34 % 0 mm 872.0 W/m2 CLR
13:49 1.6 °C -8.5 °C 34327.3 hPa WNW 12.9 km/h 12.9 km/h 34 % 0 mm 877.0 W/m2 CLR
13:54 1.7 °C -8.7 °C 34327.3 hPa Calm     33 % 0 mm 874.0 W/m2 CLR
13:59 1.8 °C -8.3 °C 34327.3 hPa South 3.1 km/h 3.1 km/h 34 % 0 mm 875.0 W/m2 CLR
14:04 1.9 °C -8.2 °C 34327.3 hPa ENE 6 km/h 6 km/h 34 % 0 mm 874.0 W/m2 CLR
14:06 2 °C -8.2 °C 34313.7 hPa NNW 23.8 km/h 23.8 km/h 34 % 0 mm 875.0 W/m2 CLR
14:11 2 °C -8.4 °C 34313.7 hPa WNW 17.9 km/h 17.9 km/h 33 % 0 mm 877.0 W/m2 CLR
14:12 2 °C -8.4 °C 34313.7 hPa WNW 11.9 km/h 11.9 km/h 33 % 0 mm 875.0 W/m2 CLR
14:17 2 °C -8.4 °C 34313.7 hPa Calm     33 % 0 mm 875.0 W/m2 CLR
14:22 2.1 °C -8.3 °C 34313.7 hPa NW 9 km/h 9 km/h 33 % 0 mm 877.0 W/m2 CLR
14:27 2.1 °C -8.3 °C 34313.7 hPa NNW 9 km/h 9 km/h 33 % 0 mm 875.0 W/m2 CLR
14:32 2.2 °C -8.3 °C 34313.7 hPa Calm     33 % 0 mm 874.0 W/m2 CLR
14:37 2.3 °C -8.4 °C 34313.7 hPa WNW 15 km/h 15 km/h 32 % 0 mm 870.0 W/m2 CLR
14:42 2.3 °C -8.4 °C 34313.7 hPa North 29.8 km/h 29.8 km/h 32 % 0 mm 867.0 W/m2 CLR
14:47 2.3 °C -8.2 °C 34313.7 hPa WNW 17.9 km/h 17.9 km/h 33 % 0 mm 863.0 W/m2 CLR
14:52 2.4 °C -8.4 °C 34313.7 hPa NNE 29.8 km/h 29.8 km/h 32 % 0 mm 863.0 W/m2 CLR
14:57 2.4 °C -8.3 °C 34303.6 hPa NNE 20.8 km/h 20.8 km/h 32 % 0 mm 858.0 W/m2 CLR
15:02 2.3 °C -8.4 °C 34303.6 hPa North 11.9 km/h 11.9 km/h 32 % 0 mm 856.0 W/m2 CLR
15:07 2.3 °C -8.4 °C 34303.6 hPa North 17.9 km/h 17.9 km/h 32 % 0 mm 851.0 W/m2 CLR
15:12 2.4 °C -8.3 °C 34303.6 hPa NE 23.8 km/h 23.8 km/h 32 % 0 mm 846.0 W/m2 CLR
15:17 2.4 °C -8.6 °C 34303.6 hPa NNE 15 km/h 15 km/h 31 % 0 mm 840.0 W/m2 CLR
15:22 2.4 °C -8.3 °C 34303.6 hPa NW 26.9 km/h 26.9 km/h 32 % 0 mm 837.0 W/m2 CLR
15:27 2.4 °C -8.6 °C 34293.4 hPa Calm     31 % 0 mm 828.0 W/m2 CLR
15:32 2.4 °C -8.6 °C 34293.4 hPa South 2.6 km/h 2.6 km/h 31 % 0 mm 823.0 W/m2 CLR
15:37 2.6 °C -8.5 °C 34293.4 hPa NW 10.3 km/h 10.3 km/h 31 % 0 mm 817.0 W/m2 CLR
15:42 2.6 °C -8.7 °C 34293.4 hPa NNW 15.6 km/h 15.6 km/h 30 % 0 mm 814.0 W/m2 CLR
15:47 2.8 °C -8.9 °C 34293.4 hPa North 15 km/h 15.6 km/h 29 % 0 mm 809.0 W/m2 CLR
15:52 2.8 °C -8.8 °C 34279.9 hPa NNE 2.6 km/h 2.6 km/h 29 % 0 mm 796.0 W/m2 CLR
15:57 2.9 °C -8.8 °C 34279.9 hPa NW 23.8 km/h 23.8 km/h 29 % 0 mm 788.0 W/m2 CLR
16:02 2.9 °C -8.7 °C 34279.9 hPa Calm     29 % 0 mm 782.0 W/m2 CLR
16:07 3.1 °C -8.6 °C 34279.9 hPa ENE 6 km/h 6 km/h 29 % 0 mm 775.0 W/m2 CLR
16:12 3.3 °C -9.1 °C 34279.9 hPa NNE 28.5 km/h 28.5 km/h 27 % 0 mm 766.0 W/m2 CLR
16:17 3.2 °C -9.1 °C 34279.9 hPa NNE 29.8 km/h 29.8 km/h 27 % 0 mm 756.0 W/m2 CLR
16:23 3.2 °C -9.2 °C 34279.9 hPa NNE 17.9 km/h 17.9 km/h 27 % 0 mm 747.0 W/m2 CLR
16:28 3.1 °C -9.6 °C 34279.9 hPa NNW 26.9 km/h 26.9 km/h 26 % 0 mm 742.0 W/m2 CLR
16:33 3.1 °C -9.2 °C 34269.7 hPa North 15 km/h 15 km/h 27 % 0 mm 726.0 W/m2 CLR
16:38 3.1 °C -9.2 °C 34269.7 hPa ENE 15 km/h 15 km/h 27 % 0 mm 719.0 W/m2 CLR
16:43 3.1 °C -8.9 °C 34269.7 hPa North 29.8 km/h 29.8 km/h 28 % 0 mm 710.0 W/m2 CLR
16:48 3.3 °C -9.1 °C 34269.7 hPa NW 26.9 km/h 26.9 km/h 27 % 0 mm 696.0 W/m2 CLR
16:49 3.3 °C -9.1 °C 34269.7 hPa NW 9 km/h 9 km/h 27 % 0 mm 691.0 W/m2 CLR
16:54 3.2 °C -9.4 °C 34269.7 hPa NNE 23.8 km/h 23.8 km/h 26 % 0 mm 677.0 W/m2 CLR
16:59 3.3 °C -9.1 °C 34269.7 hPa NE 6 km/h 6 km/h 27 % 0 mm 666.0 W/m2 CLR
17:04 3.2 °C -9.5 °C 34269.7 hPa WNW 9 km/h 9 km/h 26 % 0 mm 657.0 W/m2 CLR
17:09 3.2 °C -9.4 °C 34256.2 hPa NNW 11.9 km/h 11.9 km/h 26 % 0 mm 643.0 W/m2 CLR
17:14 3.3 °C -9.1 °C 34256.2 hPa NE 20.9 km/h 20.9 km/h 27 % 0 mm 628.0 W/m2 CLR
17:19 3.3 °C -9 °C 34256.2 hPa NW 9 km/h 9 km/h 27 % 0 mm 619.0 W/m2 CLR
17:24 3.3 °C -9 °C 34256.2 hPa Calm     27 % 0 mm 603.0 W/m2 CLR
17:29 3.4 °C -9.3 °C 34256.2 hPa NE 9 km/h 9 km/h 26 % 0 mm 589.0 W/m2 CLR
17:34 3.4 °C -9.3 °C 34256.2 hPa NW 29.8 km/h 29.8 km/h 26 % 0 mm 578.0 W/m2 CLR
17:39 3.3 °C -9.3 °C 34256.2 hPa NNW 31.1 km/h 31.1 km/h 26 % 0 mm 566.0 W/m2 CLR
17:44 3.3 °C -9.4 °C 34256.2 hPa NNE 15 km/h 15 km/h 26 % 0 mm 550.0 W/m2 CLR
17:49 3.3 °C -9.3 °C 34246 hPa North 7.7 km/h 7.7 km/h 26 % 0 mm 540.0 W/m2 CLR
17:54 3.3 °C -9.7 °C 34246 hPa WNW 23.8 km/h 23.8 km/h 25 % 0 mm 526.0 W/m2 CLR
17:59 3.3 °C -9.7 °C 34246 hPa NNE 20.9 km/h 20.9 km/h 25 % 0 mm 512.0 W/m2 CLR
18:04 3.3 °C -9.7 °C 34246 hPa NNE 29.8 km/h 29.8 km/h 25 % 0 mm 497.0 W/m2 CLR
18:09 3.3 °C -10.1 °C 34246 hPa North 15.6 km/h 15.6 km/h 24 % 0 mm 483.0 W/m2 CLR
18:14 3.3 °C -10.1 °C 34246 hPa North 20.9 km/h 20.9 km/h 24 % 0 mm 468.0 W/m2 CLR
18:19 3.3 °C -10.1 °C 34246 hPa NE 36.2 km/h 36.2 km/h 24 % 0 mm 452.0 W/m2 CLR
18:24 3.3 °C -10.1 °C 34246 hPa NNW 23.3 km/h 23.3 km/h 24 % 0 mm 438.0 W/m2 CLR
18:29 3.3 °C -10.1 °C 34246 hPa North 29.8 km/h 29.8 km/h 24 % 0 mm 422.0 W/m2 CLR
18:34 3.3 °C -10.1 °C 34246 hPa NNW 29.8 km/h 29.8 km/h 24 % 0 mm 406.0 W/m2 CLR
18:39 3.3 °C -10.1 °C 34246 hPa NNW 9 km/h 9 km/h 24 % 0 mm 387.0 W/m2 CLR
18:44 3.3 °C -10.1 °C 34246 hPa North 20.9 km/h 20.9 km/h 24 % 0 mm 373.0 W/m2 CLR
18:49 3.3 °C -10.1 °C 34246 hPa North 7.7 km/h 7.7 km/h 24 % 0 mm 360.0 W/m2 CLR
18:54 3.3 °C -10.4 °C 34246 hPa Calm     23 % 0 mm 346.0 W/m2 CLR
18:59 3.3 °C -10.4 °C 34246 hPa North 26.9 km/h 26.9 km/h 23 % 0 mm 325.0 W/m2 CLR
19:04 3.3 °C -10.1 °C 34246 hPa NE 9 km/h   24 % 0 mm 309.0 W/m2 CLR
19:09 3.3 °C -10.1 °C 34246 hPa North 23.3 km/h 23.3 km/h 24 % 0 mm 294.0 W/m2 CLR
19:14 3.3 °C -10.1 °C 34246 hPa North 20.9 km/h 20.9 km/h 24 % 0 mm 281.0 W/m2 CLR
19:19 3.3 °C -10.1 °C 34246 hPa NNW 26.9 km/h 26.9 km/h 24 % 0 mm 269.0 W/m2 CLR
19:24 3.3 °C -10.1 °C 34246 hPa North 9 km/h 9 km/h 24 % 0 mm 251.0 W/m2 CLR
19:29 3.3 °C -10.1 °C 34246 hPa Calm     24 % 0 mm 237.0 W/m2 CLR
19:34 3.3 °C -10.1 °C 34246 hPa North 23.8 km/h 23.8 km/h 24 % 0 mm 221.0 W/m2 CLR
19:39 3.3 °C -10.4 °C 34246 hPa NNW 9 km/h 9 km/h 23 % 0 mm 202.0 W/m2 CLR
19:44 3.3 °C -10.4 °C 34246 hPa NNW 9 km/h   23 % 0 mm 183.0 W/m2 CLR
19:45 3.3 °C -10.4 °C 34246 hPa NNW 9 km/h 9 km/h 23 % 0 mm 183.0 W/m2 CLR
19:50 3.3 °C -10.4 °C 34246 hPa NNW 9 km/h   23 % 0 mm 165.0 W/m2 CLR
19:55 3.3 °C -10.4 °C 34246 hPa NNW 15 km/h 15 km/h 23 % 0 mm 149.0 W/m2 CLR
20:00 3.3 °C -10.4 °C 34246 hPa Calm   1 km/h 23 % 0 mm 128.0 W/m2 CLR
20:05 3.3 °C -10.4 °C 34246 hPa Calm     23 % 0 mm 114.0 W/m2 CLR
20:10 3.3 °C -10.4 °C 34246 hPa NNW 9 km/h 9 km/h 23 % 0 mm 98.0 W/m2 CLR
20:15 3.3 °C -10.1 °C 34246 hPa Calm   0.3 km/h 24 % 0 mm 84.0 W/m2 CLR
20:20 3.3 °C -10.4 °C 34246 hPa Calm     23 % 0 mm 72.0 W/m2 FEW
20:25 3.3 °C -10.4 °C 34246 hPa Calm     23 % 0 mm 58.0 W/m2 SCT
20:30 3.3 °C -10.1 °C 34246 hPa Calm     24 % 0 mm 39.0 W/m2 BKN
20:35 3.3 °C -10.1 °C 34246 hPa Calm     24 % 0 mm 35.0 W/m2 BKN
20:40 3.3 °C -10.1 °C 34246 hPa Calm     24 % 0 mm 26.0 W/m2 BKN
20:45 3.3 °C -10.1 °C 34246 hPa Calm     24 % 0 mm 18.0 W/m2 BKN
20:50 3.3 °C -10.1 °C 34246 hPa Calm     24 % 0 mm 14.0 W/m2 BKN
20:55 3.3 °C -9.7 °C 34246 hPa Calm     25 % 0 mm 12.0 W/m2 BKN
21:00 3.3 °C -9.7 °C 34246 hPa Calm     25 % 0 mm 9.0 W/m2 BKN
21:05 3.3 °C -9.3 °C 34246 hPa Calm     26 % 0 mm 7.0 W/m2 BKN
21:10 1.9 °C -10.5 °C 34246 hPa Calm     26 % 0 mm 5.0 W/m2 OVC
21:15 1.7 °C -10.4 °C 34256.2 hPa Calm     27 % 0 mm 0.0 W/m2 OVC
21:20 1.5 °C -10.6 °C 34256.2 hPa Calm     27 % 0 mm 0.0 W/m2 OVC
21:25 1.4 °C -10.4 °C 34256.2 hPa Calm     28 % 0 mm 0.0 W/m2 CLR
21:30 1.2 °C -10.5 °C 34256.2 hPa Calm     28 % 0 mm 0.0 W/m2 CLR
21:35 1.1 °C -10.6 °C 34256.2 hPa Calm     28 % 0 mm 0.0 W/m2 CLR
21:40 1 °C -10.4 °C 34256.2 hPa Calm     29 % 0 mm 0.0 W/m2 CLR
21:45 0.8 °C -10.2 °C 34256.2 hPa Calm     30 % 0 mm 0.0 W/m2 CLR
21:50 0.6 °C -10.2 °C 34269.7 hPa Calm     31 % 0 mm 0.0 W/m2 CLR
21:55 0.3 °C -10.2 °C 34269.7 hPa Calm     32 % 0 mm 0.0 W/m2 CLR
22:00 0.1 °C -10.3 °C 34269.7 hPa Calm     32 % 0 mm 0.0 W/m2 CLR
22:05 -0.1 °C -10.2 °C 34269.7 hPa Calm     33 % 0 mm 0.0 W/m2 CLR
22:10 -0.2 °C -10.3 °C 34279.9 hPa Calm     33 % 0 mm 0.0 W/m2 CLR
22:15 -0.4 °C -10.2 °C 34279.9 hPa Calm     34 % 0 mm 0.0 W/m2 CLR
22:20 -0.6 °C -10.2 °C 34279.9 hPa Calm     35 % 0 mm 0.0 W/m2 CLR
22:25 -0.7 °C -10.3 °C 34279.9 hPa Calm     35 % 0 mm 0.0 W/m2 CLR
22:30 -0.9 °C -10.2 °C 34279.9 hPa Calm     36 % 0 mm 0.0 W/m2 CLR
22:35 -0.9 °C -10.2 °C 34279.9 hPa Calm     36 % 0 mm 0.0 W/m2 CLR
22:40 -1.1 °C -10.4 °C 34279.9 hPa Calm     36 % 0 mm 0.0 W/m2 CLR
22:45 -1.2 °C -10.2 °C 34293.4 hPa Calm     37 % 0 mm 0.0 W/m2 CLR
22:50 -1.3 °C -10.3 °C 34293.4 hPa Calm     37 % 0 mm 0.0 W/m2 CLR
22:55 -1.4 °C -10.2 °C 34293.4 hPa Calm     38 % 0 mm 0.0 W/m2 CLR
23:00 -1.5 °C -10.2 °C 34293.4 hPa Calm     38 % 0 mm 0.0 W/m2 CLR
23:05 -1.6 °C -10.3 °C 34293.4 hPa Calm     38 % 0 mm 0.0 W/m2 CLR
23:10 -1.6 °C -10.4 °C 34293.4 hPa Calm     38 % 0 mm 0.0 W/m2 CLR
23:15 -1.7 °C -10.2 °C 34293.4 hPa Calm     39 % 0 mm 0.0 W/m2 CLR
23:20 -1.7 °C -10.2 °C 34293.4 hPa Calm     39 % 0 mm 0.0 W/m2 CLR
23:25 -1.7 °C -10.2 °C 34293.4 hPa Calm     39 % 0 mm 0.0 W/m2 CLR
23:30 -1.8 °C -10.3 °C 34293.4 hPa Calm     39 % 0 mm 0.0 W/m2 CLR
23:35 -1.8 °C -10.2 °C 34293.4 hPa Calm     40 % 0 mm 0.0 W/m2 CLR
23:40 -1.9 °C -10.2 °C 34293.4 hPa Calm     40 % 0 mm 0.0 W/m2 CLR
23:45 -2 °C -10.3 °C 34293.4 hPa Calm     40 % 0 mm 0.0 W/m2 CLR
23:50 -2.1 °C -10.3 °C 34293.4 hPa Calm     40 % 0 mm 0.0 W/m2 CLR
23:55 -2.1 °C -10.2 °C 34293.4 hPa Calm     41 % 0 mm 0.0 W/m2 CLR
Lo Temps de Massalio
Compliments of Weather Underground - 1.25 mb